Location: Newark
(46.7000°N, 60.6000°W)
Time: 05:56:55
(UTC+00:00)

Transit 2A Rocket - Pass Details

Date: 30 October 2020
Orbit: 588 x 914 km, 66.7° (Epoch: 27 November)

Event Time Altitude Azimuth Distance (km) Brightness Sun altitude
Rises 19:38:03 0° 329° (NNW) 3,377 8.3 10.1°
Reaches altitude 10° 19:41:28 10° 349° (NNW) 2,374 7.4 9.6°
Maximum altitude 19:45:00 17° 29° (NNE) 1,843 6.5 9.1°
Drops below altitude 10° 19:48:21 10° 71° (ENE) 2,222 6.8 8.6°
Sets 19:51:24 0° 91° (E) 3,071 7.6 8.1°
